Tracking 19846 objects as of 18-Sep-2019
HD Live streaming from Space Station
objects crossing your sky now

FENGYUN 1C DEB

Track FENGYUN 1C DEB now!
10-day predictions


NORAD ID: 35236
Int'l Code: 1999-025DQU
Perigee: 707.2 km
Apogee: 845.8 km
Inclination: 98.9 °
Period: 100.2 minutes
Semi major axis: 7147 km
RCS: 0.0131 m2 (small)
Launch date: May 10, 1999
Source: People's Republic of China (PRC)
Launch site: Taiyaun Space Center, China (TSC)

Note: This is SATELLITE DEBRIS
aabbcc
Your satellite tracking list
Your tracking list is empty




NASA's NSSDC Master Catalog

Two Line Element Set (TLE):
1 35236U 99025DQU 19045.30028269 +.00000219 +00000-0 +86251-4 0  9991
2 35236 098.9346 212.3466 0096959 004.4246 355.7773 14.36733289622498
Source of the keplerian elements: AFSPC